Weather History for Montgomery, AL

Change the Weather History Date:

Sunday, November 4, 2012

  Actual Average Record
Temperature  
Mean Temperature 66 °F 60 °F  
Max Temperature 79 °F 73 °F 86 °F (2003)
Min Temperature 52 °F 47 °F 27 °F (1966)
Degree Days  
Heating Degree Days 0 6  
Month to date heating degree days 14 24  
Since 1 July heating degree days 81 115  
Cooling Degree Days 1    
Growing Degree Days 16 (Base 50)    
Moisture  
Dew Point 54 °F    
Average Humidity 70    
Maximum Humidity 93    
Minimum Humidity 47    
Precipitation  
Precipitation 0.00 in 0.13 in 2.72 in (1988)
Month to date precipitation 0.00 0.50  
Year to date precipitation 35.46 44.10  
Snow  
Snow 0.00 in 0.00 in - ()
Month to date snowfall 0.0 0.0  
Since 1 July snowfall 0.0 0.0  
Since 1 September snowfall 0.0 0.0  
Snow Depth 0.00 in    
Sea Level Pressure  
Sea Level Pressure 30.05 in    
Wind  
Wind Speed 6 mph (West)    
Max Wind Speed 20 mph    
Max Gust Speed 23 mph    
Visibility 6 miles    
Events      
T = Trace of Precipitation, MM = Missing Value Source: NWS Daily Summary

Daily Weather History Graph

Daily Weather History Graph

Search for Another Location

Airport:

Trip Planner

Search our weather history database for the weather conditions in past years. The results will help you decide how hot, cold, wet, or windy it might be!

Date:

Astronomy

Nov. 04, 2012 Rise Set
Actual Time 6:05 AM CST 4:52 PM CST
Civil Twilight 5:40 AM CST 5:17 PM CST
Nautical Twilight 5:10 AM CST 5:46 PM CST
Astronomical Twilight 4:42 AM CST 6:15 PM CST
Moon 9:32 PM CST (11/4) 10:45 AM CST (11/4)
Length of Visible Light 11h 37m
Length of Day
10h 46m
Waning Gibbous, 72% of the Moon is Illuminated
Nov 4
Waning Gibbous
Nov 6
Last Quarter
Nov 13
New
Nov 20
First Quarter
Nov 28
Full

Hourly Weather History & Observations

Time (CST) Temp. Dew Point Humidity Pressure Visibility Wind Dir Wind Speed Gust Speed Precip Events Conditions
12:53 AM 59.0 °F 57.0 °F 93% 30.06 in 10.0 mi Calm Calm - N/A   Clear
1:53 AM 57.0 °F 55.0 °F 93% 30.05 in 10.0 mi SW 3.5 mph - N/A   Clear
1:53 AM 54.0 °F 52.0 °F 93% 30.05 in 6.0 mi Calm Calm - N/A   Clear
2:24 AM 53.6 °F 51.8 °F 94% 30.04 in 2.0 mi SSW 3.5 mph - N/A   Clear
2:33 AM 53.6 °F 51.8 °F 94% 30.04 in 4.0 mi SSW 4.6 mph - N/A   Clear
2:53 AM 54.0 °F 52.0 °F 93% 30.04 in 7.0 mi Calm Calm - N/A   Clear
3:07 AM 55.4 °F 53.6 °F 94% 30.04 in 1.8 mi Calm Calm - N/A   Clear
3:11 AM 55.4 °F 53.6 °F 94% 30.04 in 0.8 mi Calm Calm - N/A   Clear
3:27 AM 55.4 °F 53.6 °F 94% 30.04 in 1.8 mi Calm Calm - N/A   Clear
3:30 AM 55.4 °F 53.6 °F 94% 30.04 in 3.0 mi Calm Calm - N/A   Clear
3:46 AM 55.4 °F 53.6 °F 94% 30.04 in 2.5 mi SSW 3.5 mph - N/A   Clear
3:53 AM 55.0 °F 53.1 °F 93% 30.04 in 3.0 mi SSW 3.5 mph - N/A   Clear
4:01 AM 53.6 °F 51.8 °F 94% 30.04 in 2.5 mi SW 3.5 mph - N/A   Clear
4:09 AM 53.6 °F 51.8 °F 94% 30.04 in 4.0 mi Calm Calm - N/A   Clear
4:47 AM 55.4 °F 53.6 °F 94% 30.04 in 1.8 mi SW 4.6 mph - N/A   Clear
4:48 AM 55.9 °F 54.0 °F 93% 30.04 in 1.8 mi SW 3.5 mph - N/A   Clear
4:57 AM 55.4 °F 53.6 °F 94% 30.05 in 2.5 mi SSW 5.8 mph - N/A   Clear
5:07 AM 57.2 °F 55.4 °F 94% 30.05 in 3.0 mi SW 4.6 mph - N/A   Clear
5:30 AM 57.2 °F 55.4 °F 94% 30.05 in 1.8 mi Calm Calm - N/A   Clear
5:38 AM 55.4 °F 53.6 °F 94% 30.05 in 1.0 mi SSW 3.5 mph - N/A   Clear
5:46 AM 57.2 °F 55.4 °F 94% 30.05 in 2.0 mi SSW 3.5 mph - N/A   Clear
5:53 AM 57.9 °F 55.0 °F 90% 30.05 in 3.0 mi Calm Calm - N/A   Clear
6:00 AM 57.2 °F 55.4 °F 94% 30.06 in 1.8 mi Calm Calm - N/A   Clear
6:06 AM 57.2 °F 55.4 °F 94% 30.06 in 0.8 mi Calm Calm - N/A   Clear
6:20 AM 57.2 °F 55.4 °F 94% 30.07 in 1.5 mi WSW 3.5 mph - N/A   Clear
6:27 AM 57.2 °F 55.4 °F 94% 30.07 in 3.0 mi WSW 4.6 mph - N/A   Clear
6:53 AM 60.1 °F 57.9 °F 93% 30.08 in 5.0 mi Calm Calm - N/A   Clear
7:53 AM 66.0 °F 59.0 °F 78% 30.09 in 10.0 mi West 6.9 mph - N/A   Clear
8:53 AM 69.1 °F 57.0 °F 65% 30.08 in 10.0 mi WNW 9.2 mph - N/A   Partly Cloudy
9:53 AM 69.1 °F 57.0 °F 65% 30.07 in 10.0 mi West 5.8 mph - N/A   Clear
10:53 AM 71.1 °F 57.0 °F 61% 30.05 in 10.0 mi West 5.8 mph - N/A   Clear
11:53 AM 77.0 °F 55.9 °F 48% 30.03 in 10.0 mi WNW 9.2 mph - N/A   Clear
12:53 PM 72.0 °F 55.0 °F 55% 30.03 in 10.0 mi NW 15.0 mph - N/A   Partly Cloudy
1:53 PM 73.0 °F 55.9 °F 55% 30.03 in 10.0 mi NW 9.2 mph - N/A   Clear
2:53 PM 73.0 °F 55.0 °F 53% 30.02 in 10.0 mi WNW 10.4 mph - N/A   Clear
3:53 PM 70.0 °F 55.0 °F 59% 30.02 in 10.0 mi West 11.5 mph - N/A   Clear
4:53 PM 66.0 °F 55.0 °F 68% 30.03 in 10.0 mi West 6.9 mph - N/A   Clear
5:53 PM 64.0 °F 55.0 °F 73% 30.04 in 10.0 mi West 8.1 mph - N/A   Clear
6:53 PM 62.1 °F 55.0 °F 78% 30.04 in 10.0 mi WNW 6.9 mph - N/A   Clear
7:53 PM 59.0 °F 54.0 °F 83% 30.05 in 10.0 mi WNW 5.8 mph - N/A   Clear
8:53 PM 57.0 °F 51.1 °F 81% 30.06 in 10.0 mi NW 4.6 mph - N/A   Clear
9:53 PM 55.9 °F 46.9 °F 72% 30.07 in 10.0 mi North 5.8 mph - N/A   Clear
10:53 PM 54.0 °F 44.1 °F 69% 30.07 in 10.0 mi NNW 5.8 mph - N/A   Clear